Location: Nakusp
(50.2330°N, 117.8000°W)
Time: 06:15:46
(UTC-07:00)

Cosmos 1939 Rocket - Visible Passes

Search period start: 22 September 2017 00:00
Search period end: 02 October 2017 00:00
Orbit: 533 x 586 km, 97.5° (Epoch: 21 September)

Date Brightness Start Highest point End Pass type
(mag) Time Alt. Az. Time Alt. Az. Time Alt. Az.
22 Sep 3.9 19:53:06 16° ESE 19:55:22 27° ENE 19:58:44 10° N visible
22 Sep 4.4 21:29:01 25° SW 21:30:15 31° W 21:33:48 10° NNW visible
23 Sep 3.9 19:51:56 16° ESE 19:54:05 26° ENE 19:57:26 10° N visible
23 Sep 4.4 21:27:51 27° SW 21:28:57 32° W 21:32:32 10° NNW visible
24 Sep 3.9 19:50:47 17° ESE 19:52:49 26° ENE 19:56:07 10° N visible
24 Sep 4.3 21:26:42 29° SW 21:27:39 33° W 21:31:16 10° NNW visible
25 Sep 4.0 19:49:38 18° ESE 19:51:32 25° ENE 19:54:49 10° N visible
25 Sep 4.2 21:25:33 31° WSW 21:26:21 34° W 21:30:00 10° NNW visible
26 Sep 4.0 19:48:28 18° ESE 19:50:15 25° ENE 19:53:31 10° N visible
26 Sep 4.2 21:24:23 33° WSW 21:25:04 35° W 21:28:44 10° NNW visible
27 Sep 4.0 19:47:19 18° E 19:48:58 24° ENE 19:52:13 10° N visible
27 Sep 4.1 21:23:14 34° WSW 21:23:46 36° W 21:27:28 10° NNW visible
28 Sep 4.1 19:46:10 19° E 19:47:42 24° ENE 19:50:54 10° N visible
28 Sep 4.0 21:22:05 36° WSW 21:22:27 37° W 21:26:12 10° NNW visible
29 Sep 4.1 19:45:01 19° E 19:46:25 23° ENE 19:49:37 10° N visible
29 Sep 4.0 21:20:56 38° WSW 21:21:10 38° W 21:24:56 10° NNW visible
30 Sep 4.1 19:43:51 19° E 19:45:08 23° ENE 19:48:19 10° NNE visible
30 Sep 4.0 21:19:47 39° WSW 21:19:52 40° W 21:23:40 10° NNW visible
01 Oct 4.2 19:42:42 19° E 19:43:51 22° ENE 19:47:00 10° NNE visible
01 Oct 3.9 21:18:37 41° W 21:18:37 41° W 21:22:24 10° NNW visible
